Regional Weather Roundup
Issued by NWS

Home | Current Version | Previous Version | Text Only | Print | Product List | Glossary On
Versions: 1 2 3 4 5 6 7 8 9 10 11 12 13 14 15 16 17 18 19 20 21 22 23 24 25 26 27 28 29 30 31 32 33 34 35 36 37 38 39 40 41 42 43 44 45 46 47 48 49 50
884
ASUS44 KLIX 220601
RWRLA
LOUISIANA WEATHER ROUNDUP
NATIONAL WEATHER SERVICE NEW ORLEANS LA
1200 AM CST MON DEC 22 2014

NOTE: "FAIR" INDICATES FEW OR NO CLOUDS BELOW 12,000 FEET WITH NO
      SIGNIFICANT WEATHER AND/OR OBSTRUCTIONS TO VISIBILITY.
      SKY/WX - SKY CONDITION AND SIGNIFICANT WEATHER.
      TMP - AIR TEMPERATURE.    DP   - DEWPOINT TEMPERATURE.
      RH  - RELATIVE HUMIDITY.  PRES - PRESSURE.
      HX  - HEAT INDEX.         WCI  - WIND CHILL INDEX.

*  THESE STATIONS ARE NOT NWS OR FAA STATIONS AND ARE NOT UNDER
   NWS QUALITY CONTROL.

LAZ040-048-061>063-065-066-069-220700-
SOUTHEAST LOUISIANA

CITY           SKY/WX    TMP DP  RH WIND       PRES   REMARKS
N.O. AUDUBON     N/A     60  56  87 MISG        N/A
6HR MIN TEMP:  55; 6HR MAX TEMP:  60;

N.O. INTL ARPT MOCLDY    58  54  86 NE8       29.92F FOG
6HR MIN TEMP:  54; 6HR MAX TEMP:  58;

N.O. LAKEFRONT CLOUDY    58  55  90 E8        29.94F FOG
6HR MIN TEMP:  56; 6HR MAX TEMP:  59;

N.O. DOWNTOWN* CLOUDY    57  52  82 NE3       29.94F
6HR MIN TEMP:  55; 6HR MAX TEMP:  57;

SLIDELL        CLOUDY    56  53  90 CALM      29.94F FOG
6HR MIN TEMP:  51; 6HR MAX TEMP:  56;

BATON ROUGE    CLOUDY    52  50  93 E6        29.93F FOG
6HR MIN TEMP:  50; 6HR MAX TEMP:  56;

BOOTHVILLE     FOG       58  58 100 NE6       29.92F VSB 3/4
6HR MIN TEMP:  56; 6HR MAX TEMP:  59;

BELLE CHASSE   CLOUDY    58  56  93 NE7       29.93F FOG
6HR MIN TEMP:  55; 6HR MAX TEMP:  58;

BOGALUSA*        N/A     55  52  89 CALM      29.96F FOG
6HR MIN TEMP:  54; 6HR MAX TEMP:  59;

GALLIANO*      NOT AVBL
NEW ROADS*     NOT AVBL
GONZALES*      NOT AVBL
HAMMOND*       NOT AVBL
HOUMA*         CLOUDY    55  55  99 N3        29.93F FOG
6HR MIN TEMP:  52; 6HR MAX TEMP:  56;

PORT FOURCHON* CLOUDY    61  59  94 NE8       29.95R FOG

$$

LAZ041-044-053-054-220700-
SOUTHWEST LOUISIANA

CITY           SKY/WX    TMP DP  RH WIND       PRES   REMARKS
LAKE CHARLES   CLOUDY    51  50  96 SE10      29.92F FOG
6HR MIN TEMP:  51; 6HR MAX TEMP:  52;

LAFAYETTE      MOCLDY    50  48  93 CALM      29.93F FOG
6HR MIN TEMP:  49; 6HR MAX TEMP:  54;

PATTERSON      CLOUDY    54  52  94 N3        29.94F
6HR MIN TEMP:  50; 6HR MAX TEMP:  54;

SALT POINT       N/A     57  52  83 CALM      29.92F
6HR MIN TEMP:  54; 6HR MAX TEMP:  57;

NEW IBERIA     CLOUDY    51  50  96 CALM      29.94F FOG
6HR MIN TEMP:  49; 6HR MAX TEMP:  54;

CHENAULT AIRPK FOG       50  50  99 SE7       29.92F VSB 3/4
6HR MIN TEMP:  50; 6HR MAX TEMP:  51;


$$

LAZ027-028-220700-
CENTRAL LOUISIANA

CITY           SKY/WX    TMP DP  RH WIND       PRES   REMARKS
FORT POLK      FOG       49  48  98 S5        29.89F VSB 3/4
6HR MIN TEMP:  49; 6HR MAX TEMP:  51;

ALEXANDRIA INT CLOUDY    49  48  97 S5        29.90F FOG
6HR MIN TEMP:  48; 6HR MAX TEMP:  50;

ALEXANDRIA     CLOUDY    48  48 100 VRB3      29.91F
6HR MIN TEMP:  48; 6HR MAX TEMP:  50;


$$

LAZ001-002-220700-
NORTHWEST LOUISIANA

CITY           SKY/WX    TMP DP  RH WIND       PRES   REMARKS
SHREVEPORT     CLOUDY    48  47  96 S3        29.86R
6HR MIN TEMP:  46; 6HR MAX TEMP:  52;

BARKSDALE AFB  NOT AVBL
DTN SHREVEPORT CLOUDY    48  45  89 SE8       29.87R
6HR MIN TEMP:  47; 6HR MAX TEMP:  53;


$$

LAZ014-016-220700-
NORTHEAST LOUISIANA

CITY           SKY/WX    TMP DP  RH WIND       PRES   REMARKS
MONROE         MOCLDY    46  45  96 CALM      29.91F FOG
6HR MIN TEMP:  42; 6HR MAX TEMP:  54;

TALLULAH       CLEAR     48  46  93 SE6       29.92F
6HR MIN TEMP:  48; 6HR MAX TEMP:  53;


$$




USA.gov is the U.S. government's official web portal to all federal, state and local government web resources and services.